Карточка аэропорта URRP

Внимание!
Информация на этой странице в стадии наполнения.
Если вы не увидели какой-то информации, или заметили неточность - пожалуйста сообщите нам!
Спасибо!
Команда RU-STAFF
Название аэропортаПлатов
Название аэропорта (англ.)Platov
Превышение282 ft. (86 m.)
Координаты47°29.634', 39°55.482'
Высота перехода3500 ft
Эшелон переходаFL50 (QNH >= 996); FL60 (QNH < 996)
Коды ответчика1001-1017
Зона ОрВДРостов-на-Дону РПИ (URRV)
Данные METARURRP 052100Z 06004MPS CAVOK 22/11 Q1015 R23/CLRD70 NOSIG RMK QFE753/1004
Проноз погоды (TAF)URRP 051956Z 0521/0621 08003G12MPS 9999 SCT030CB TX33/0613Z TN17/0602Z PROB40 TEMPO 0600/0606 0500 FG FEW002 SCT020CB TEMPO 0606/0621 13003G10MPS
NOTAMshow/hide NOTAM
AWOS   TABLE

Информация о ВПП

ВПП Длина ВПП (м.) Покрытие Курс ВПП Частота ILS
053900Цементобетон46111.5
233900Цементобетон226110.9

Диспетчерские позиции

Позывной Наименование органа УВД Частота
URRP_GNDПлатов - руление119.0
URRP_TWRПлатов-Вышка119.7
URRP_R_APPПлатов - Круг121.2
URRP_DELПлатов-деливери127.1
URRP_APPПлатов-подход128.2



Спутниковое изображение